Regional Weather Roundup
Issued by NWS

Home | Current Version | Previous Version | Graphics & Text | Print | Product List | Glossary On
Versions: 1 2 3 4 5 6 7 8 9 10 11 12 13 14 15 16 17 18 19 20 21 22 23 24 25 26 27 28 29 30 31 32 33 34 35 36 37 38 39 40 41 42 43 44 45 46 47 48 49 50
000
ASUS43 KMKX 271800
RWRWI

WISCONSIN REGIONAL WEATHER ROUNDUP
NATIONAL WEATHER SERVICE MILWAUKEE/SULLIVAN WI
100 PM CDT MON MAR 27 2017

NOTE: "FAIR" INDICATES FEW OR NO CLOUDS BELOW 12,000 FEET WITH NO
SIGNIFICANT WEATHER AND/OR OBSTRUCTIONS TO VISIBILITY.

WIZ001-002-006>008-014>016-023>028-271900-
NORTHWEST WISCONSIN

CITY           SKY/WX    TMP DP  RH WIND       PRES   REMARKS
SUPERIOR ARPT  CLOUDY    45  36  71 NE6       29.99F
ASHLAND        MOSUNNY   47  35  63 NE5       29.98F
6HR MIN TEMP:  32; 6HR MAX TEMP:  47;

HAYWARD        CLOUDY    53  33  46 CALM      29.95F
6HR MIN TEMP:  35; 6HR MAX TEMP:  53;

SIREN          PTSUNNY   50  33  51 E5        29.97S
CUMBERLAND     CLOUDY    46  34  61 N9        29.96S
RICE LAKE      CLOUDY    44  37  76 CALM      29.98S
CHETEK         CLOUDY    42  37  81 NW3       29.96S
LADYSMITH      CLOUDY    43  38  82 N6        29.97S
EAU CLAIRE     NOT AVBL
MENOMONIE      CLOUDY    43  36  76 NE5       29.97F
NEW RICHMOND   CLOUDY    46  36  66 NE3       29.97F
OSCEOLA        MOSUNNY   51  37  59 NW6       30.00S
$$

WIZ003>005-009-010-017-018-271900-
NORTH CENTRAL WISCONSIN

CITY           SKY/WX    TMP DP  RH WIND       PRES   REMARKS
MANITOWISH WTR CLOUDY    39  37  89 CALM      29.95R
ARBOR VITAE    CLOUDY    42  37  83 N6        29.94S
WOODRUFF       CLOUDY    42  37  83 N6        29.94S
RHINELANDER    CLOUDY    41  36  82 VRB5      29.95R
EAGLE RIVER    CLOUDY    39  35  85 N3        29.94R
LAND O LAKES   CLOUDY    36  33  88 NW5       29.97R WCI  32
PHILLIPS       CLOUDY    41  35  80 N5        29.95R
TOMAHAWK       CLOUDY    38  35  90 N3        29.95R
MEDFORD        CLOUDY    38  35  89 N3        29.94R
MERRILL        CLOUDY    38  37  95 N3        29.95R
$$

WIZ029-030-035-036-043>047-271900-
CENTRAL WISCONSIN

CITY           SKY/WX    TMP DP  RH WIND       PRES   REMARKS
WAUSAU         NOT AVBL
MOSINEE        CLOUDY    39  37  93 CALM      29.96R
MARSHFIELD     NOT AVBL
STEVENS POINT  CLOUDY    39  38  99 NW5       29.96R
WAUPACA        CLOUDY    45  39  82 CALM      29.96R
WAUTOMA        NOT AVBL
WISC RAPIDS    NOT AVBL
CAMP DOUGLAS   CLOUDY    45  41  87 CALM      29.95S
$$

WIZ011>013-019>022-031-037>040-048>050-271900-
NORTHEAST WISCONSIN

CITY           SKY/WX    TMP DP  RH WIND       PRES   REMARKS
ANTIGO         CLOUDY    38  36  92 CALM      29.94R
SHAWANO        CLOUDY    43  37  82 CALM      29.96R
OCONTO         CLOUDY    39  33  80 E5        29.96R
STURGEON BAY   NOT AVBL
GREEN BAY      CLOUDY    43  38  82 CALM      29.96S
6HR MIN TEMP:  38; 6HR MAX TEMP:  43;

MANITOWOC      CLOUDY    37  37 100 E7        29.97R FOG     WCI  32
APPLETON       CLOUDY    41  39  93 CALM      29.94R
CLINTONVILLE   CLOUDY    41  37  87 CALM      29.95R
OSHKOSH        CLOUDY    44  39  82 CALM      29.94S
6HR MIN TEMP:  39; 6HR MAX TEMP:  44;

$$

WIZ032>034-041-042-053>061-271900-
SOUTHWEST WISCONSIN

CITY           SKY/WX    TMP DP  RH WIND       PRES   REMARKS
LA CROSSE      NOT AVBL
SPARTA         CLOUDY    44  40  86 CALM      29.96R
VIROQUA        CLOUDY    43  43 100 CALM      29.94R
BOSCOBEL       CLOUDY    47  42  83 CALM      29.96R HAZE
6HR MIN TEMP:  43; 6HR MAX TEMP:  48;

PRAIRIE DU CHI CLOUDY    44  43  96 NW3       29.96R FOG
PLATTEVILLE    CLOUDY    47  45  94 CALM      29.94S
$$

WIZ056-057-062-063-064-067-068-271900-
SOUTH CENTRAL WISCONSIN

CITY           SKY/WX    TMP DP  RH WIND       PRES   REMARKS
REEDSBURG      CLOUDY    43  43  98 CALM      29.95R
BARABOO/DELLS  CLOUDY    43  40  90 CALM      29.95R FOG
LONE ROCK      NOT AVBL
MINERAL POINT  CLOUDY    46  46 100 CALM      29.94R
MADISON        CLOUDY    46  41  82 CALM      29.94R
6HR MIN TEMP:  41; 6HR MAX TEMP:  46;

MIDDLETON      CLOUDY    46  42  86 CALM      29.95R
WATERTOWN        N/A    N/A N/A N/A E3        29.93S
MONROE         CLOUDY    46  43  87 E8        29.93S
JANESVILLE     CLOUDY    48  43  81 E6        29.93S
$$

WIZ051-052-058>065-066-070>072-271900-
SOUTHEAST WISCONSIN

CITY           SKY/WX    TMP DP  RH WIND       PRES   REMARKS
MILWAUKEE      CLOUDY    45  39  79 E6        29.95S
6HR MIN TEMP:  42; 6HR MAX TEMP:  45; 6HR PCP: TRACE;

WAUKESHA       CLOUDY    45  39  81 CALM      29.95S
MILWAUKEE/TIMM CLOUDY    45  37  76 E6        29.95S
RACINE         CLOUDY    44  39  82 E8        29.96F
6HR MIN TEMP:  42; 6HR MAX TEMP:  45;

KENOSHA        CLOUDY    45  40  82 E7        29.95S
6HR MIN TEMP:  43; 6HR MAX TEMP:  47;

FOND DU LAC    CLOUDY    45  39  79 CALM      29.94F
6HR MIN TEMP:  39; 6HR MAX TEMP:  45;

SHEBOYGAN      CLOUDY    43  38  82 SE6       29.94F
6HR MIN TEMP:  38; 6HR MAX TEMP:  43;

WEST BEND      CLOUDY    43  41  93 CALM      29.94F
JUNEAU         CLOUDY    44  40  85 CALM      29.94F
$$

LSZ147-162-271900-
LAKE SUPERIOR

STATION/POSITION TIME  TEMP    WIND        PRES    WAVE
                       AIR SEA DIR/SP/G            HT/PER
                 (UTC) (F)     (DEG/KT/KT) (MB)    (FT/S)
DEVILS ISLAND    1700   33     230/  9/ 10 1016.2F
PORT WING        1730   36     290/  7/  9 1015.9R
SAXON HARBOR     1740   38      50/  3/  3 1015.6S
$$

LMZ867-665-643>646-271900-
LAKE MICHIGAN

STATION/POSITION TIME  TEMP    WIND        PRES    WAVE
                       AIR SEA DIR/SP/G            HT/PER
                 (UTC) (F)     (DEG/KT/KT) (MB)    (FT/S)
CHAMBERS ISLAND  1740   38      10/  3/  5 1014.6R
NORTHPORT PIER   1740   36     320/  7/  9 1014.9R
SISTER BAY       1706   38     340/  6/  7   N/A
KEWAUNEE LAKESHO 1730   37     150/  2/  5 1013.9F
SHEBOYGAN LAKESH 1700   38     140/  5/  5 1014.8S
PORT WASHINGTON  1730   40      CALM  /  2 1015.2F
MILWAUKEE LAKESH 1730   39     150/  2/  2   N/A
KENOSHA   LAKESH 1700   40     160/  4/  5 1014.9
$$

TC  - TEMPERATURE IN CELSIUS
VSB - VISIBILITY IN STATUTE MILES
WCI - WIND CHILL INDEX
HX  - HEAT INDEX




USA.gov is the U.S. government's official web portal to all federal, state and local government web resources and services.